Location: D�rnast
(49.6426°N, 11.9755°E)
Time: 13:19:53
(UTC+00:00)

Cosmos 1844 Rocket - Pass Details

Date: 24 January 2021
Orbit: 825 x 843 km, 71.0° (Epoch: 26 February)

Event Time Altitude Azimuth Distance (km) Brightness Sun altitude
Rises 17:00:03 0° 198° (SSW) 3,388 6.4 -10.6°
Reaches altitude 10° 17:02:29 10° 196° (SSW) 2,456 5.6 -11.0°
Maximum altitude 17:08:06 70° 114° (ESE) 898 2.7 -11.8°
Drops below altitude 10° 17:13:43 10° 33° (NNE) 2,464 4.7 -12.7°
Enters shadow 17:14:18 - 32° (NNE) 2,685 4.9 -12.8°
